BAW2064 FIMP-EGKK

Flight info

Callsign BAW2064
Flight time N/A
Altitude 34000
Route NIBIS2A NIBIS UG661 MAROF/N0492F360 UG661 DV UA401 NN UW325 SIPKI/N0487F370 UT325 POGBA/N0485F380 UT325 FL UM731 DIR/N0480F400 UB730 DJA UM2 CSO/N0478F410 DCT CIRTA/N0477F400 DCT BUKID DCT GARPU DCT PIGOS DCT BARSO DCT OKTET DCT GIPNO DCT BULOL DCT IDAVO DCT BAGBI DCT SIZZA DCT LAULY DCT BRY DCT CLM DCT KOPOR DCT KESAX DCT KUNAV
Aircraft B772/H-SDE2E3FGHIJ5LORVWXY/LB1D1

Departure

Time 2026-05-04 08:40
Airport Sir Seewoosagur Ramgoolam International Airport (FIMP)

Arrival

Time N/A
Airport London Gatwick Airport (EGKK)
Time Latitude Longitude Altitude Speed Heading
2026-05-04 08:28 -20.43064 57.67647 171 ft 0 kts 195°
2026-05-04 08:33 -20.43032 57.67660 171 ft 4 kts 207°
2026-05-04 08:33 -20.43011 57.67673 171 ft 2 kts 228°
2026-05-04 08:35 -20.43014 57.67758 169 ft 0 kts 298°
2026-05-04 08:35 -20.43000 57.67731 170 ft 13 kts 298°
2026-05-04 08:37 -20.42453 57.67170 207 ft 29 kts 296°
2026-05-04 08:37 -20.42422 57.66957 201 ft 29 kts 292°
2026-05-04 08:37 -20.42351 57.66963 209 ft 13 kts 98°
2026-05-04 08:38 -20.42445 57.67164 207 ft 59 kts 118°
2026-05-04 08:38 -20.42745 57.67779 173 ft 128 kts 117°
2026-05-04 08:38 -20.43259 57.68816 176 ft 184 kts 120°
2026-05-04 08:40 -20.50331 57.71583 3118 ft 262 kts 228°
2026-05-04 08:40 -20.51484 57.70063 3672 ft 265 kts 229°
2026-05-04 08:40 -20.52641 57.68526 4266 ft 267 kts 229°
2026-05-04 08:41 -20.53800 57.66999 4875 ft 268 kts 229°
2026-05-04 08:41 -20.54988 57.65453 5462 ft 270 kts 228°
2026-05-04 08:41 -20.56189 57.63905 6040 ft 272 kts 228°
2026-05-04 08:41 -20.57405 57.62346 6580 ft 274 kts 228°
2026-05-04 08:42 -20.58638 57.60775 7117 ft 276 kts 228°
2026-05-04 08:42 -20.59874 57.59205 7644 ft 277 kts 228°
2026-05-04 08:42 -20.61121 57.57623 8161 ft 279 kts 228°
2026-05-04 08:42 -20.62373 57.56034 8679 ft 281 kts 228°
2026-05-04 08:43 -20.63594 57.54398 9139 ft 281 kts 238°
2026-05-04 08:43 -20.64174 57.52420 9457 ft 291 kts 268°
2026-05-04 08:43 -20.63901 57.50288 9900 ft 291 kts 282°
2026-05-04 08:43 -20.63438 57.48164 10282 ft 297 kts 281°
2026-05-04 08:44 -20.62974 57.45945 10389 ft 315 kts 281°
2026-05-04 08:44 -20.62488 57.43601 10539 ft 333 kts 281°
2026-05-04 08:46 -20.53081 57.27206 13236 ft 395 kts 302°
2026-05-04 08:46 -20.51497 57.24797 13892 ft 398 kts 302°
2026-05-04 08:46 -20.49892 57.22360 14448 ft 402 kts 302°
2026-05-04 08:46 -20.48276 57.19908 15028 ft 406 kts 302°
2026-05-04 08:47 -20.46622 57.17504 15609 ft 410 kts 306°
2026-05-04 08:47 -20.44708 57.15212 16198 ft 416 kts 310°
2026-05-04 08:47 -20.42685 57.12984 16821 ft 420 kts 311°
2026-05-04 08:47 -20.40639 57.10740 17417 ft 423 kts 310°
2026-05-04 08:48 -20.38603 57.08457 18010 ft 427 kts 310°
2026-05-04 08:48 -20.36572 57.06131 18573 ft 431 kts 309°
2026-05-04 08:48 -20.34525 57.03771 19108 ft 434 kts 309°
2026-05-04 08:48 -20.32471 57.01399 19663 ft 437 kts 309°
2026-05-04 08:49 -20.30397 56.99010 20222 ft 440 kts 310°
2026-05-04 08:50 -20.17621 56.84333 23282 ft 462 kts 310°
2026-05-04 08:50 -20.15428 56.81816 23722 ft 465 kts 310°
2026-05-04 08:51 -20.13213 56.79276 24119 ft 468 kts 310°
2026-05-04 08:51 -20.11014 56.76755 24536 ft 470 kts 310°
2026-05-04 08:51 -20.08785 56.74201 24949 ft 471 kts 310°
2026-05-04 08:51 -20.06545 56.71635 25342 ft 473 kts 310°
2026-05-04 08:52 -20.04300 56.69064 25730 ft 475 kts 310°
2026-05-04 08:52 -20.02041 56.66480 26093 ft 478 kts 311°
2026-05-04 08:52 -19.99771 56.63882 26449 ft 480 kts 311°
2026-05-04 08:52 -19.97495 56.61279 26808 ft 482 kts 311°
2026-05-04 08:53 -19.95207 56.58664 27140 ft 484 kts 311°
2026-05-04 08:54 -19.79028 56.40207 29324 ft 492 kts 311°
2026-05-04 08:55 -19.76682 56.37536 29496 ft 494 kts 311°
2026-05-04 08:55 -19.74337 56.34866 29726 ft 496 kts 311°
2026-05-04 08:55 -19.71976 56.32180 29953 ft 496 kts 311°
2026-05-04 08:55 -19.69619 56.29500 30253 ft 495 kts 310°
2026-05-04 08:57 -19.54207 56.12006 32163 ft 482 kts 310°
2026-05-04 09:01 -19.22700 55.76400 34057 ft 469 kts 309°
2026-05-04 09:01 -19.18229 55.71363 34062 ft 469 kts 309°
2026-05-04 09:02 -19.13756 55.66329 34059 ft 470 kts 309°
2026-05-04 09:02 -19.09299 55.61316 34054 ft 471 kts 309°
2026-05-04 09:03 -19.04804 55.56266 34060 ft 471 kts 309°
2026-05-04 09:03 -19.00607 55.50971 34052 ft 467 kts 302°
2026-05-04 09:04 -18.96962 55.45326 34066 ft 467 kts 300°
2026-05-04 09:04 -18.93310 55.39628 34062 ft 469 kts 301°
2026-05-04 09:05 -18.89579 55.33977 34060 ft 469 kts 302°
2026-05-04 09:05 -18.85807 55.28349 34057 ft 469 kts 302°
2026-05-04 09:06 -18.82033 55.22733 34043 ft 469 kts 302°
2026-05-04 09:08 -18.66957 55.00308 34053 ft 470 kts 302°
2026-05-04 09:08 -18.63162 54.94675 34058 ft 471 kts 302°
2026-05-04 09:09 -18.59358 54.89034 34056 ft 472 kts 302°
2026-05-04 09:09 -18.55568 54.83417 34055 ft 473 kts 302°
2026-05-04 09:10 -18.51749 54.77761 34054 ft 473 kts 302°
2026-05-04 09:10 -18.47924 54.72103 34049 ft 473 kts 302°
2026-05-04 09:11 -18.44100 54.66449 34055 ft 473 kts 302°
2026-05-04 09:11 -18.40302 54.60834 34054 ft 473 kts 302°
2026-05-04 09:12 -18.36477 54.55183 34055 ft 473 kts 302°
2026-05-04 09:14 -18.21151 54.32588 34047 ft 477 kts 303°
2026-05-04 09:14 -18.17287 54.26903 34049 ft 478 kts 303°
2026-05-04 09:15 -18.13411 54.21205 34053 ft 478 kts 303°
2026-05-04 09:15 -18.09555 54.15544 34051 ft 478 kts 303°
2026-05-04 09:17 -17.92096 53.90017 34051 ft 477 kts 303°
2026-05-04 09:18 -17.88240 53.84390 34042 ft 478 kts 303°
2026-05-04 09:18 -17.84325 53.78683 34049 ft 479 kts 303°
2026-05-04 09:19 -17.80440 53.73023 34050 ft 480 kts 303°
2026-05-04 09:19 -17.76513 53.67308 34051 ft 482 kts 303°
2026-05-04 09:20 -17.72611 53.61634 34049 ft 482 kts 303°
2026-05-04 09:20 -17.68688 53.55935 34049 ft 482 kts 303°
2026-05-04 09:21 -17.64738 53.50201 34048 ft 482 kts 303°
2026-05-04 09:21 -17.60820 53.44520 34048 ft 482 kts 303°
2026-05-04 09:22 -17.56917 53.38863 34049 ft 481 kts 303°
2026-05-04 09:22 -17.52983 53.33168 34048 ft 481 kts 303°
2026-05-04 09:23 -17.49052 53.27481 34049 ft 481 kts 303°
2026-05-04 09:23 -17.45139 53.21824 34046 ft 481 kts 303°
2026-05-04 09:25 -17.29415 52.99143 34041 ft 482 kts 304°
2026-05-04 09:26 -17.25467 52.93459 34050 ft 483 kts 304°
2026-05-04 09:26 -17.21520 52.87782 34048 ft 483 kts 304°
2026-05-04 09:27 -17.17558 52.82089 34050 ft 483 kts 304°
2026-05-04 09:27 -17.13599 52.76405 34044 ft 483 kts 304°
2026-05-04 09:28 -17.09634 52.70716 34055 ft 484 kts 304°
2026-05-04 09:28 -17.05668 52.65031 34051 ft 485 kts 304°
2026-05-04 09:29 -17.01704 52.59352 34052 ft 486 kts 304°
2026-05-04 09:29 -16.97714 52.53641 34034 ft 486 kts 304°
2026-05-04 09:30 -16.93731 52.47946 34049 ft 486 kts 304°
2026-05-04 09:30 -16.89730 52.42227 34033 ft 486 kts 304°
2026-05-04 09:31 -16.85748 52.36541 34030 ft 486 kts 304°
2026-05-04 09:31 -16.81770 52.30867 34047 ft 485 kts 304°
2026-05-04 09:32 -16.77789 52.25194 34050 ft 485 kts 304°
2026-05-04 09:34 -16.61793 52.02429 34036 ft 487 kts 304°
2026-05-04 09:34 -16.57773 51.96720 34039 ft 487 kts 304°
2026-05-04 09:35 -16.53771 51.91041 34039 ft 487 kts 304°
2026-05-04 09:35 -16.49748 51.85336 34042 ft 487 kts 304°
2026-05-04 09:37 -16.33682 51.62599 34040 ft 488 kts 304°
2026-05-04 09:38 -16.29656 51.56913 34033 ft 488 kts 304°
2026-05-04 09:38 -16.25641 51.51246 34042 ft 488 kts 304°
2026-05-04 09:39 -16.21607 51.45557 34044 ft 488 kts 304°
2026-05-04 09:39 -16.17591 51.39899 34040 ft 488 kts 304°
2026-05-04 09:40 -16.13557 51.34218 34043 ft 488 kts 304°
2026-05-04 09:40 -16.09528 51.28550 34041 ft 488 kts 304°
2026-05-04 09:42 -15.93349 51.05832 34043 ft 488 kts 304°
2026-05-04 09:43 -15.89297 51.00154 34042 ft 488 kts 304°
2026-05-04 09:43 -15.85244 50.94478 34043 ft 489 kts 304°
2026-05-04 09:44 -15.81219 50.88845 34046 ft 489 kts 304°
2026-05-04 09:46 -15.65651 50.67100 34046 ft 489 kts 304°
2026-05-04 09:46 -15.61606 50.61460 34042 ft 489 kts 304°
2026-05-04 09:47 -15.57548 50.55808 34050 ft 489 kts 304°
2026-05-04 09:49 -15.41256 50.33152 34066 ft 491 kts 304°
2026-05-04 09:51 -15.26968 50.13337 34061 ft 491 kts 305°
2026-05-04 09:51 -15.22872 50.07670 34068 ft 490 kts 304°
2026-05-04 09:52 -15.18797 50.02032 34060 ft 490 kts 305°
2026-05-04 09:52 -15.14704 49.96372 34061 ft 490 kts 305°
2026-05-04 09:53 -15.10609 49.90714 34067 ft 492 kts 305°
2026-05-04 09:53 -15.06502 49.85044 34080 ft 494 kts 305°
2026-05-04 09:54 -15.02361 49.79330 34069 ft 495 kts 305°
2026-05-04 09:54 -14.98238 49.73649 34078 ft 495 kts 305°
2026-05-04 09:55 -14.94118 49.67978 34084 ft 494 kts 305°
2026-05-04 09:55 -14.89969 49.62270 34068 ft 493 kts 305°
2026-05-04 09:56 -14.85868 49.56628 34076 ft 492 kts 305°
2026-05-04 09:56 -14.81758 49.50980 34079 ft 492 kts 304°
2026-05-04 09:57 -14.77643 49.45327 34077 ft 491 kts 304°
2026-05-04 09:57 -14.73553 49.39711 34072 ft 492 kts 305°
2026-05-04 09:58 -14.69405 49.34021 34078 ft 493 kts 304°
2026-05-04 09:58 -14.65295 49.28389 34072 ft 494 kts 305°
2026-05-04 10:00 -14.48703 49.05690 34062 ft 494 kts 304°
2026-05-04 10:04 -14.19711 48.66173 34021 ft 494 kts 306°
2026-05-04 10:04 -14.15549 48.60515 34021 ft 494 kts 306°
2026-05-04 10:05 -14.11405 48.54888 34005 ft 492 kts 306°
2026-05-04 10:05 -14.07286 48.49297 34000 ft 493 kts 306°
2026-05-04 10:06 -14.03133 48.43662 33993 ft 493 kts 305°
2026-05-04 10:06 -13.98972 48.38025 33985 ft 493 kts 306°
2026-05-04 10:08 -13.84449 48.18365 33970 ft 493 kts 306°
2026-05-04 10:08 -13.80288 48.12741 33970 ft 493 kts 306°
2026-05-04 10:09 -13.76155 48.07156 34001 ft 495 kts 306°
2026-05-04 10:09 -13.74069 48.04340 34175 ft 494 kts 306°
2026-05-04 10:09 -13.71993 48.01537 34425 ft 491 kts 306°
2026-05-04 10:10 -13.69921 47.98744 34684 ft 489 kts 306°
2026-05-04 10:10 -13.67862 47.95971 34938 ft 487 kts 306°
2026-05-04 10:10 -13.65810 47.93210 35167 ft 485 kts 306°
2026-05-04 10:10 -13.63762 47.90453 35367 ft 485 kts 306°
2026-05-04 10:11 -13.61719 47.87703 35565 ft 484 kts 306°
2026-05-04 10:11 -13.59675 47.84951 35776 ft 483 kts 306°
2026-05-04 10:11 -13.57637 47.82208 35878 ft 484 kts 307°
2026-05-04 10:11 -13.55587 47.79450 35921 ft 485 kts 307°
2026-05-04 10:12 -13.51519 47.73981 35960 ft 484 kts 307°
2026-05-04 10:12 -13.47439 47.68498 35967 ft 481 kts 307°
2026-05-04 10:13 -13.43373 47.63038 35967 ft 480 kts 307°
2026-05-04 10:13 -13.39307 47.57582 35966 ft 480 kts 307°
2026-05-04 10:14 -13.35245 47.52134 35965 ft 480 kts 307°
2026-05-04 10:16 -13.18966 47.30334 35966 ft 482 kts 307°
2026-05-04 10:16 -13.14873 47.24862 35962 ft 483 kts 307°
2026-05-04 10:17 -13.10785 47.19400 35966 ft 483 kts 307°
2026-05-04 10:19 -12.94420 46.97564 35965 ft 483 kts 307°
2026-05-04 10:19 -12.90323 46.92107 35956 ft 483 kts 307°
2026-05-04 10:20 -12.86218 46.86641 35966 ft 483 kts 307°
2026-05-04 10:20 -12.82146 46.81224 35966 ft 483 kts 307°
2026-05-04 10:21 -12.78043 46.75767 35961 ft 483 kts 307°
2026-05-04 10:21 -12.73937 46.70311 35962 ft 483 kts 307°
2026-05-04 10:22 -12.67772 46.62124 35959 ft 483 kts 307°
2026-05-04 10:23 -12.63684 46.56698 35965 ft 483 kts 307°
2026-05-04 10:25 -12.47245 46.34915 35955 ft 484 kts 308°
2026-05-04 10:25 -12.43128 46.29468 35960 ft 484 kts 308°
2026-05-04 10:26 -12.39005 46.24015 35962 ft 484 kts 308°
2026-05-04 10:26 -12.34879 46.18559 35965 ft 484 kts 308°
2026-05-04 10:27 -12.30781 46.13146 35958 ft 484 kts 308°
2026-05-04 10:27 -12.26648 46.07695 35960 ft 485 kts 308°
2026-05-04 10:28 -12.22515 46.02247 35959 ft 485 kts 308°
2026-05-04 10:28 -12.18379 45.96796 35961 ft 485 kts 308°
2026-05-04 10:29 -12.14243 45.91348 35965 ft 484 kts 308°
2026-05-04 10:29 -12.10135 45.85939 35958 ft 484 kts 308°
2026-05-04 10:30 -12.05999 45.80496 35970 ft 484 kts 308°
2026-05-04 10:30 -12.01860 45.75053 35963 ft 484 kts 308°
2026-05-04 10:31 -11.97724 45.69615 35966 ft 485 kts 308°
2026-05-04 10:32 -11.83254 45.50619 35968 ft 484 kts 308°
2026-05-04 10:33 -11.79117 45.45195 35956 ft 484 kts 308°
2026-05-04 10:33 -11.74975 45.39768 35964 ft 485 kts 308°
2026-05-04 10:34 -11.71500 45.35217 35962 ft 486 kts 308°
2026-05-04 10:34 -11.66677 45.28903 35967 ft 486 kts 308°
2026-05-04 10:35 -11.63211 45.24368 35965 ft 487 kts 308°
2026-05-04 10:35 -11.59030 45.18900 35966 ft 488 kts 308°
2026-05-04 10:36 -11.54857 45.13446 35963 ft 488 kts 308°
2026-05-04 10:36 -11.50675 45.07983 35966 ft 489 kts 308°
2026-05-04 10:37 -11.46491 45.02520 35967 ft 489 kts 308°
2026-05-04 10:37 -11.42311 44.97066 35976 ft 489 kts 308°
2026-05-04 10:39 -11.27657 44.77967 35963 ft 488 kts 308°
2026-05-04 10:40 -11.23466 44.72511 35967 ft 488 kts 308°
2026-05-04 10:40 -11.19298 44.67088 35965 ft 488 kts 308°
2026-05-04 10:41 -11.15098 44.61626 35968 ft 489 kts 308°
2026-05-04 10:41 -11.10908 44.56181 35966 ft 490 kts 308°
2026-05-04 10:42 -11.06708 44.50724 35962 ft 490 kts 308°
2026-05-04 10:42 -11.02507 44.45269 35965 ft 490 kts 308°
2026-05-04 10:43 -10.98292 44.39797 35965 ft 490 kts 308°
2026-05-04 10:45 -10.81473 44.17986 35962 ft 490 kts 309°
2026-05-04 10:45 -10.77266 44.12533 35969 ft 490 kts 309°
2026-05-04 10:46 -10.73043 44.07062 35964 ft 491 kts 309°
2026-05-04 10:46 -10.68845 44.01627 35964 ft 491 kts 309°
2026-05-04 10:47 -10.64621 43.96161 35966 ft 491 kts 309°
2026-05-04 10:47 -10.60413 43.90718 35964 ft 492 kts 309°
2026-05-04 10:49 -10.43483 43.68843 35964 ft 493 kts 309°
2026-05-04 10:50 -10.39242 43.63370 35964 ft 493 kts 309°
2026-05-04 10:52 -10.22242 43.41467 35961 ft 495 kts 309°
2026-05-04 10:52 -10.17958 43.35952 35959 ft 495 kts 309°
2026-05-04 10:54 -10.00896 43.14013 35966 ft 496 kts 309°
2026-05-04 10:56 -9.83801 42.92074 35962 ft 497 kts 309°
2026-05-04 10:57 -9.79515 42.86581 35959 ft 497 kts 309°
2026-05-04 10:57 -9.75204 42.81057 35964 ft 497 kts 309°
2026-05-04 10:58 -9.70924 42.75575 35953 ft 497 kts 309°
2026-05-04 10:58 -9.66632 42.70081 35959 ft 497 kts 309°
2026-05-04 10:59 -9.62348 42.64600 35959 ft 497 kts 309°
2026-05-04 10:59 -9.58041 42.59092 35960 ft 497 kts 309°
2026-05-04 11:00 -9.53758 42.53618 35958 ft 498 kts 309°
2026-05-04 11:02 -9.36500 42.31581 35961 ft 499 kts 309°
2026-05-04 11:05 -9.04063 41.90268 35955 ft 502 kts 309°
2026-05-04 11:06 -8.99731 41.84760 35956 ft 501 kts 310°
2026-05-04 11:06 -8.95372 41.79221 35961 ft 501 kts 309°
2026-05-04 11:10 -8.64964 41.40811 35961 ft 501 kts 310°
2026-05-04 11:12 -8.47362 41.19057 35962 ft 499 kts 310°
2026-05-04 11:12 -8.42971 41.13628 35962 ft 499 kts 310°
2026-05-04 11:13 -8.38555 41.08170 35963 ft 499 kts 310°
2026-05-04 11:13 -8.34172 41.02756 35955 ft 500 kts 310°
2026-05-04 11:14 -8.29771 40.97320 35961 ft 500 kts 310°
2026-05-04 11:16 -8.12330 40.75364 35960 ft 501 kts 308°
2026-05-04 11:16 -8.08127 40.69805 35962 ft 501 kts 308°
2026-05-04 11:17 -8.03868 40.64220 35958 ft 501 kts 309°
2026-05-04 11:19 -7.86743 40.42097 35961 ft 501 kts 310°
2026-05-04 11:19 -7.82348 40.36603 35964 ft 502 kts 310°
2026-05-04 11:20 -7.77969 40.31108 35961 ft 502 kts 310°
2026-05-04 11:20 -7.73617 40.25634 35966 ft 502 kts 310°
2026-05-04 11:22 -7.56882 40.04595 35964 ft 502 kts 310°
2026-05-04 11:23 -7.52510 39.99105 35961 ft 502 kts 310°
2026-05-04 11:25 -7.37193 39.79883 35973 ft 502 kts 310°
2026-05-04 11:25 -7.32844 39.74431 35975 ft 502 kts 310°
2026-05-04 11:27 -7.13112 39.49711 35982 ft 503 kts 310°
2026-05-04 11:28 -7.08724 39.44218 35988 ft 503 kts 310°
2026-05-04 11:28 -7.04344 39.38738 35996 ft 503 kts 310°
2026-05-04 11:29 -6.99952 39.33245 35993 ft 503 kts 310°
2026-05-04 11:29 -6.95583 39.27781 35997 ft 503 kts 310°
2026-05-04 11:33 -6.61575 38.92542 35987 ft 503 kts 317°
2026-05-04 11:33 -6.56585 38.87639 35990 ft 502 kts 317°
2026-05-04 11:34 -6.51554 38.82700 35988 ft 502 kts 317°
2026-05-04 11:34 -6.46589 38.77826 35986 ft 502 kts 317°
2026-05-04 11:35 -6.41576 38.72905 35993 ft 502 kts 317°
2026-05-04 11:35 -6.36583 38.68007 35987 ft 503 kts 317°
2026-05-04 11:36 -6.31572 38.63092 35997 ft 503 kts 316°
2026-05-04 11:36 -6.26572 38.58188 35986 ft 503 kts 316°
2026-05-04 11:37 -6.21552 38.53266 35986 ft 503 kts 316°
2026-05-04 11:37 -6.16559 38.48372 35981 ft 503 kts 316°
2026-05-04 11:38 -6.11582 38.43481 35985 ft 502 kts 316°
2026-05-04 11:38 -6.06589 38.38565 35986 ft 502 kts 316°
2026-05-04 11:39 -6.01591 38.33645 35994 ft 502 kts 316°
2026-05-04 11:41 -5.84108 38.16455 36004 ft 503 kts 316°
2026-05-04 11:41 -5.79107 38.11539 36003 ft 504 kts 316°
2026-05-04 11:42 -5.74107 38.06626 36009 ft 504 kts 316°
2026-05-04 11:42 -5.69090 38.01698 36013 ft 504 kts 316°
2026-05-04 11:43 -5.64071 37.96744 36015 ft 504 kts 316°
2026-05-04 11:43 -5.59093 37.91811 36010 ft 505 kts 316°
2026-05-04 11:44 -5.54112 37.86876 36021 ft 505 kts 316°
2026-05-04 11:44 -5.49100 37.81916 36022 ft 505 kts 316°
2026-05-04 11:45 -5.44076 37.76947 36034 ft 506 kts 316°
2026-05-04 11:45 -5.39083 37.72010 36019 ft 506 kts 316°
2026-05-04 11:46 -5.34046 37.67031 36028 ft 507 kts 316°
2026-05-04 11:46 -5.29018 37.62061 36023 ft 507 kts 316°
2026-05-04 11:47 -5.24019 37.57121 36031 ft 507 kts 316°
2026-05-04 11:47 -5.18960 37.52123 36024 ft 508 kts 316°
2026-05-04 11:48 -5.13956 37.47181 36028 ft 507 kts 316°
2026-05-04 11:48 -5.08906 37.42194 36029 ft 508 kts 316°
2026-05-04 11:49 -5.03889 37.37242 36025 ft 508 kts 316°
2026-05-04 11:49 -4.98841 37.32259 36017 ft 509 kts 316°
2026-05-04 11:50 -4.93775 37.27260 36024 ft 509 kts 316°
2026-05-04 11:50 -4.88745 37.22298 36015 ft 509 kts 316°
2026-05-04 11:51 -4.83689 37.17311 36017 ft 509 kts 316°
2026-05-04 11:51 -4.78635 37.12326 36020 ft 510 kts 316°
2026-05-04 11:52 -4.73605 37.07368 36015 ft 510 kts 316°
2026-05-04 11:52 -4.68532 37.02367 36012 ft 510 kts 316°
2026-05-04 11:53 -4.63491 36.97398 36013 ft 510 kts 316°
2026-05-04 11:53 -4.58431 36.92412 36017 ft 510 kts 316°
2026-05-04 11:55 -4.38249 36.72479 36020 ft 510 kts 316°
2026-05-04 11:56 -4.33180 36.67461 36022 ft 510 kts 316°
2026-05-04 11:56 -4.28153 36.62487 36027 ft 510 kts 316°
2026-05-04 11:57 -4.23104 36.57493 36027 ft 509 kts 316°
2026-05-04 11:57 -4.18068 36.52511 36015 ft 509 kts 316°
2026-05-04 11:58 -4.13026 36.47525 36021 ft 508 kts 316°
2026-05-04 11:58 -4.08021 36.42576 36017 ft 508 kts 316°
2026-05-04 11:59 -4.02981 36.37594 36018 ft 508 kts 316°
2026-05-04 11:59 -3.97967 36.32637 36013 ft 507 kts 316°
2026-05-04 12:00 -3.92883 36.27679 36011 ft 507 kts 318°
2026-05-04 12:00 -3.87630 36.22989 36009 ft 507 kts 320°
2026-05-04 12:01 -3.82367 36.18337 36016 ft 507 kts 319°
2026-05-04 12:02 -3.64123 36.01733 36018 ft 506 kts 316°
2026-05-04 12:03 -3.59149 35.96767 36020 ft 506 kts 316°
2026-05-04 12:03 -3.54118 35.91842 36030 ft 507 kts 317°
2026-05-04 12:04 -3.49045 35.86930 36030 ft 507 kts 317°
2026-05-04 12:04 -3.43976 35.82025 36052 ft 507 kts 317°
2026-05-04 12:05 -3.38896 35.77102 36053 ft 508 kts 317°
2026-05-04 12:05 -3.33818 35.72178 36060 ft 508 kts 317°
2026-05-04 12:06 -3.28736 35.67252 36068 ft 509 kts 317°
2026-05-04 12:06 -3.23649 35.62322 36058 ft 509 kts 317°
2026-05-04 12:07 -3.18584 35.57414 36048 ft 509 kts 317°
2026-05-04 12:07 -3.13497 35.52485 36041 ft 509 kts 317°
2026-05-04 12:08 -3.08398 35.47544 36049 ft 509 kts 317°
2026-05-04 12:08 -3.03317 35.42622 36022 ft 508 kts 317°
2026-05-04 12:09 -2.98236 35.37693 36036 ft 507 kts 317°
2026-05-04 12:09 -2.93205 35.32805 36017 ft 507 kts 317°
2026-05-04 12:10 -2.88144 35.27886 36021 ft 507 kts 317°
2026-05-04 12:10 -2.83930 35.23792 36002 ft 507 kts 317°
2026-05-04 12:11 -2.78873 35.18881 36006 ft 506 kts 317°
2026-05-04 12:11 -2.73827 35.13981 35995 ft 505 kts 317°
2026-05-04 12:12 -2.68780 35.09080 35996 ft 505 kts 317°
2026-05-04 12:12 -2.63747 35.04193 35983 ft 504 kts 317°
2026-05-04 12:14 -2.43623 34.84661 35976 ft 503 kts 318°
2026-05-04 12:15 -2.38598 34.79785 35967 ft 503 kts 318°
2026-05-04 12:15 -2.33594 34.74931 35966 ft 503 kts 318°
2026-05-04 12:16 -2.28568 34.70054 35952 ft 503 kts 318°
2026-05-04 12:16 -2.23545 34.65181 35963 ft 503 kts 318°
2026-05-04 12:17 -2.18553 34.60339 35949 ft 503 kts 318°
2026-05-04 12:17 -2.13529 34.55466 35959 ft 502 kts 318°
2026-05-04 12:18 -2.08504 34.50592 35950 ft 503 kts 318°
2026-05-04 12:18 -2.03473 34.45712 35948 ft 503 kts 318°
2026-05-04 12:19 -1.98479 34.40879 35952 ft 503 kts 318°
2026-05-04 12:19 -1.93429 34.36015 35950 ft 503 kts 318°
2026-05-04 12:20 -1.88387 34.31156 35939 ft 503 kts 318°
2026-05-04 12:20 -1.83345 34.26292 35939 ft 503 kts 318°
2026-05-04 12:21 -1.78347 34.21465 35937 ft 503 kts 318°
2026-05-04 12:21 -1.73310 34.16579 35932 ft 503 kts 318°
2026-05-04 12:22 -1.68279 34.11700 35932 ft 503 kts 318°
2026-05-04 12:22 -1.63247 34.06821 35927 ft 503 kts 318°
2026-05-04 12:23 -1.58249 34.01979 35925 ft 503 kts 318°
2026-05-04 12:23 -1.53204 33.97120 35919 ft 504 kts 318°
2026-05-04 12:24 -1.48152 33.92261 35928 ft 504 kts 318°
2026-05-04 12:24 -1.43088 33.87384 35932 ft 505 kts 318°
2026-05-04 12:25 -1.38037 33.82490 35933 ft 505 kts 318°
2026-05-04 12:25 -1.33017 33.77612 35934 ft 506 kts 318°
2026-05-04 12:26 -1.27971 33.72721 35935 ft 506 kts 318°
2026-05-04 12:26 -1.22913 33.67822 35939 ft 506 kts 318°
2026-05-04 12:27 -1.17863 33.62927 35941 ft 506 kts 318°
2026-05-04 12:27 -1.12811 33.58030 35940 ft 506 kts 318°
2026-05-04 12:28 -1.07763 33.53136 35942 ft 506 kts 318°
2026-05-04 12:28 -1.02714 33.48242 35942 ft 506 kts 318°
2026-05-04 12:29 -0.97661 33.43351 35946 ft 505 kts 318°
2026-05-04 12:29 -0.92598 33.38469 35947 ft 505 kts 318°
2026-05-04 12:30 -0.87539 33.33590 35946 ft 506 kts 318°
2026-05-04 12:30 -0.82502 33.28729 35945 ft 506 kts 318°
2026-05-04 12:31 -0.77428 33.23830 35944 ft 506 kts 318°
2026-05-04 12:31 -0.72388 33.18966 35947 ft 506 kts 318°
2026-05-04 12:32 -0.64795 33.11628 35946 ft 506 kts 318°
2026-05-04 12:33 -0.59735 33.06731 35943 ft 506 kts 318°
2026-05-04 12:33 -0.54675 33.01834 35946 ft 505 kts 318°
2026-05-04 12:34 -0.49656 32.96977 35945 ft 505 kts 318°
2026-05-04 12:34 -0.44606 32.92090 35948 ft 505 kts 318°
2026-05-04 12:35 -0.39555 32.87204 35946 ft 505 kts 318°
2026-05-04 12:35 -0.34501 32.82313 35943 ft 505 kts 318°
2026-05-04 12:36 -0.29450 32.77426 35945 ft 505 kts 318°
2026-05-04 12:36 -0.24433 32.72572 35945 ft 505 kts 318°
2026-05-04 12:37 -0.19386 32.67689 35943 ft 505 kts 318°
2026-05-04 12:37 -0.14358 32.62824 35942 ft 505 kts 318°
2026-05-04 12:38 -0.09316 32.57945 35945 ft 505 kts 318°
2026-05-04 12:38 -0.04269 32.53061 35946 ft 505 kts 318°
2026-05-04 12:39 0.00785 32.48170 36075 ft 505 kts 317°
2026-05-04 12:39 0.05697 32.43147 36082 ft 506 kts 311°
2026-05-04 12:40 0.09758 32.37451 36078 ft 507 kts 305°
2026-05-04 12:40 0.13682 32.31588 36043 ft 507 kts 305°
2026-05-04 12:41 0.17637 32.25762 36004 ft 506 kts 306°
2026-05-04 12:41 0.21613 32.19953 35964 ft 506 kts 306°
2026-05-04 12:42 0.25601 32.14129 35926 ft 506 kts 306°
2026-05-04 12:42 0.29539 32.08371 35931 ft 505 kts 306°
2026-05-04 12:43 0.33505 32.02571 35926 ft 505 kts 305°
2026-05-04 12:43 0.37455 31.96757 35927 ft 506 kts 305°
2026-05-04 12:44 0.41403 31.90928 35920 ft 506 kts 305°
2026-05-04 12:44 0.45343 31.85113 35922 ft 506 kts 305°
2026-05-04 12:45 0.49300 31.79279 35923 ft 506 kts 305°
2026-05-04 12:45 0.53239 31.73471 35920 ft 506 kts 304°
2026-05-04 12:46 0.57196 31.67636 35920 ft 507 kts 305°
2026-05-04 12:46 0.61151 31.61801 35919 ft 507 kts 304°
2026-05-04 12:47 0.65082 31.56003 35920 ft 507 kts 305°
2026-05-04 12:47 0.69046 31.50174 35918 ft 506 kts 305°
2026-05-04 12:48 0.73029 31.44344 35913 ft 507 kts 305°
2026-05-04 12:48 0.76999 31.38532 35917 ft 507 kts 305°
2026-05-04 12:49 0.80973 31.32708 35905 ft 507 kts 305°
2026-05-04 12:49 0.84920 31.26922 35909 ft 507 kts 305°
2026-05-04 12:50 0.88894 31.21094 35908 ft 507 kts 305°
2026-05-04 12:50 0.92872 31.15261 35893 ft 507 kts 305°
2026-05-04 12:51 0.96855 31.09422 35904 ft 508 kts 305°
2026-05-04 12:51 1.00808 31.03626 35894 ft 507 kts 304°
2026-05-04 12:52 1.04783 30.97797 35893 ft 506 kts 304°
2026-05-04 12:52 1.08753 30.91975 35871 ft 506 kts 304°
2026-05-04 12:53 1.12719 30.86158 35879 ft 506 kts 304°
2026-05-04 12:53 1.16685 30.80342 35877 ft 507 kts 304°
2026-05-04 12:54 1.20656 30.74517 35866 ft 507 kts 304°
2026-05-04 12:54 1.24627 30.68690 35859 ft 507 kts 304°
2026-05-04 12:55 1.28589 30.62905 35858 ft 507 kts 305°
2026-05-04 12:55 1.32645 30.57120 35858 ft 507 kts 305°
2026-05-04 12:56 1.36697 30.51357 35857 ft 506 kts 305°
2026-05-04 12:56 1.40709 30.45628 35856 ft 505 kts 305°
2026-05-04 12:57 1.44734 30.39872 35857 ft 505 kts 305°
2026-05-04 12:57 1.48748 30.34131 35879 ft 504 kts 305°
2026-05-04 12:58 1.52765 30.28386 35871 ft 503 kts 305°
2026-05-04 12:58 1.56695 30.22582 35866 ft 503 kts 301°
2026-05-04 12:59 1.59765 30.16341 35871 ft 503 kts 294°
2026-05-04 12:59 1.62665 30.09966 35866 ft 503 kts 294°
2026-05-04 13:00 1.65109 30.04674 35864 ft 504 kts 295°
2026-05-04 13:00 1.68076 29.98317 35861 ft 505 kts 295°
2026-05-04 13:01 1.71048 29.91958 35851 ft 504 kts 295°
2026-05-04 13:01 1.74015 29.85600 35849 ft 504 kts 295°
2026-05-04 13:02 1.76977 29.79252 35841 ft 503 kts 295°
2026-05-04 13:02 1.80009 29.72998 35844 ft 502 kts 296°
2026-05-04 13:03 1.83119 29.66747 35836 ft 502 kts 296°
2026-05-04 13:03 1.86213 29.60483 35842 ft 502 kts 296°
2026-05-04 13:04 1.89296 29.54210 35837 ft 502 kts 296°
2026-05-04 13:04 1.92384 29.47927 35836 ft 502 kts 296°
2026-05-04 13:05 1.95377 29.41667 35836 ft 502 kts 295°
2026-05-04 13:05 1.98348 29.35333 35835 ft 502 kts 295°
2026-05-04 13:06 2.01316 29.29014 35834 ft 502 kts 295°
2026-05-04 13:06 2.04295 29.22700 35830 ft 501 kts 295°
2026-05-04 13:07 2.07273 29.16396 35832 ft 501 kts 295°
2026-05-04 13:07 2.10256 29.10081 35833 ft 501 kts 295°
2026-05-04 13:08 2.13218 29.03807 35831 ft 501 kts 295°
2026-05-04 13:08 2.16197 28.97496 35830 ft 501 kts 295°
2026-05-04 13:09 2.19174 28.91190 35831 ft 501 kts 295°
2026-05-04 13:09 2.22131 28.84923 35832 ft 501 kts 295°
2026-05-04 13:10 2.25112 28.78606 35827 ft 501 kts 295°
2026-05-04 13:10 2.28085 28.72304 35828 ft 501 kts 295°
2026-05-04 13:11 2.31059 28.65999 35830 ft 501 kts 295°
2026-05-04 13:11 2.34014 28.59733 35826 ft 501 kts 295°
2026-05-04 13:12 2.36986 28.53432 35819 ft 501 kts 295°
2026-05-04 13:12 2.39959 28.47127 35824 ft 501 kts 295°
2026-05-04 13:13 2.42937 28.40810 35823 ft 502 kts 295°
2026-05-04 13:13 2.45902 28.34519 35824 ft 502 kts 295°
2026-05-04 13:14 2.48881 28.28198 35821 ft 501 kts 295°
2026-05-04 13:14 2.51851 28.21895 35820 ft 501 kts 295°
2026-05-04 13:15 2.54845 28.15606 35826 ft 501 kts 296°
2026-05-04 13:15 2.57855 28.09321 35819 ft 501 kts 296°
2026-05-04 13:16 2.60866 28.03025 35827 ft 501 kts 296°
2026-05-04 13:16 2.63855 27.96767 35824 ft 501 kts 296°
2026-05-04 13:17 2.66865 27.90460 35826 ft 501 kts 296°
2026-05-04 13:17 2.69872 27.84159 35821 ft 501 kts 296°
2026-05-04 13:18 2.72860 27.77896 35822 ft 501 kts 296°
2026-05-04 13:18 2.75869 27.71589 35823 ft 502 kts 296°
2026-05-04 13:19 2.78877 27.65284 35866 ft 504 kts 296°
2026-05-04 13:19 2.80399 27.62126 36079 ft 503 kts 297°
2026-05-04 13:19 2.82122 27.59074 36352 ft 501 kts 303°
2026-05-04 13:19 2.84127 27.56239 36633 ft 499 kts 307°
2026-05-04 13:20 2.86222 27.53482 36899 ft 497 kts 308°
2026-05-04 13:20 2.88320 27.50735 37136 ft 496 kts 308°
2026-05-04 13:20 2.90412 27.47990 37346 ft 496 kts 307°
2026-05-04 13:20 2.92498 27.45237 37568 ft 496 kts 307°
2026-05-04 13:21 2.94546 27.42518 37758 ft 495 kts 307°
2026-05-04 13:21 2.98689 27.36992 37818 ft 498 kts 307°
2026-05-04 13:22 3.02835 27.31448 37818 ft 496 kts 307°
2026-05-04 13:22 3.06966 27.25923 37823 ft 494 kts 307°
2026-05-04 13:23 3.11082 27.20420 37816 ft 493 kts 307°
2026-05-04 13:23 3.15192 27.14928 37819 ft 493 kts 307°
2026-05-04 13:24 3.19301 27.09434 37817 ft 493 kts 307°
2026-05-04 13:24 3.23416 27.03930 37822 ft 493 kts 307°
2026-05-04 13:25 3.29554 26.95723 37821 ft 493 kts 307°
2026-05-04 13:25 3.33675 26.90211 37838 ft 494 kts 307°
2026-05-04 13:26 3.37794 26.84699 37820 ft 494 kts 307°
2026-05-04 13:26 3.41919 26.79176 37813 ft 495 kts 307°
2026-05-04 13:27 3.46048 26.73653 37815 ft 496 kts 307°
2026-05-04 13:27 3.50180 26.68124 37836 ft 496 kts 307°
2026-05-04 13:28 3.54315 26.62588 37840 ft 497 kts 307°
2026-05-04 13:28 3.58435 26.57070 37835 ft 498 kts 307°
2026-05-04 13:29 3.62588 26.51508 37815 ft 498 kts 307°
2026-05-04 13:29 3.66743 26.45943 37814 ft 497 kts 307°
2026-05-04 13:30 3.70885 26.40394 37827 ft 497 kts 307°
2026-05-04 13:30 3.74997 26.34884 37813 ft 497 kts 307°
2026-05-04 13:31 3.79137 26.29335 37808 ft 496 kts 307°
2026-05-04 13:31 3.83262 26.23806 37827 ft 495 kts 307°
2026-05-04 13:32 3.87370 26.18299 37808 ft 495 kts 307°
2026-05-04 13:32 3.91492 26.12771 37804 ft 495 kts 307°
2026-05-04 13:33 3.95614 26.07244 37827 ft 494 kts 307°
2026-05-04 13:33 3.99706 26.01754 37802 ft 494 kts 307°
2026-05-04 13:34 4.03824 25.96230 37801 ft 494 kts 307°
2026-05-04 13:34 4.07942 25.90704 37803 ft 494 kts 307°
2026-05-04 13:35 4.14082 25.82462 37800 ft 494 kts 308°
2026-05-04 13:36 4.18194 25.76941 37812 ft 494 kts 308°
2026-05-04 13:36 4.22305 25.71421 37801 ft 494 kts 308°
2026-05-04 13:37 4.26418 25.65897 37794 ft 494 kts 308°
2026-05-04 13:37 4.30530 25.60373 37815 ft 494 kts 308°
2026-05-04 13:38 4.34643 25.54845 37800 ft 494 kts 308°
2026-05-04 13:38 4.38752 25.49324 37799 ft 494 kts 308°
2026-05-04 13:39 4.42834 25.43837 37795 ft 494 kts 308°
2026-05-04 13:39 4.46941 25.38314 37795 ft 494 kts 308°
2026-05-04 13:40 4.51056 25.32780 37813 ft 494 kts 308°
2026-05-04 13:40 4.55161 25.27256 37788 ft 494 kts 308°
2026-05-04 13:41 4.59271 25.21726 37805 ft 493 kts 308°
2026-05-04 13:41 4.63350 25.16238 37788 ft 493 kts 308°
2026-05-04 13:42 4.69499 25.07965 37789 ft 493 kts 308°
2026-05-04 13:42 4.73601 25.02444 37807 ft 493 kts 308°
2026-05-04 13:43 4.77671 24.96963 37807 ft 493 kts 308°
2026-05-04 13:43 4.81769 24.91443 37786 ft 493 kts 308°
2026-05-04 13:44 4.85863 24.85927 37803 ft 493 kts 308°
2026-05-04 13:44 4.89958 24.80407 37786 ft 493 kts 308°
2026-05-04 13:45 4.94052 24.74889 37781 ft 493 kts 308°
2026-05-04 13:45 4.98121 24.69408 37803 ft 493 kts 308°
2026-05-04 13:46 5.02215 24.63891 37783 ft 493 kts 308°
2026-05-04 13:46 5.06310 24.58370 37789 ft 493 kts 308°
2026-05-04 13:47 5.10406 24.52846 37784 ft 493 kts 308°
2026-05-04 13:47 5.14498 24.47324 37783 ft 493 kts 308°
2026-05-04 13:48 5.17903 24.42731 37780 ft 493 kts 308°
2026-05-04 13:48 5.22660 24.36316 37796 ft 493 kts 308°
2026-05-04 13:49 5.26090 24.31688 37775 ft 493 kts 308°
2026-05-04 13:49 5.30163 24.26190 37779 ft 493 kts 308°
2026-05-04 13:50 5.34253 24.20666 37780 ft 493 kts 308°
2026-05-04 13:50 5.38342 24.15143 37777 ft 493 kts 308°
2026-05-04 13:51 5.42431 24.09619 37775 ft 493 kts 308°
2026-05-04 13:51 5.46508 24.04109 37777 ft 492 kts 308°
2026-05-04 13:52 5.52633 23.95829 37794 ft 492 kts 308°
2026-05-04 13:53 5.56711 23.90313 37781 ft 493 kts 308°
2026-05-04 13:53 5.60808 23.84770 37774 ft 493 kts 307°
2026-05-04 13:54 5.66929 23.76489 37776 ft 493 kts 308°
2026-05-04 13:55 5.73130 23.68277 37774 ft 492 kts 308°
2026-05-04 13:55 5.79347 23.60082 37791 ft 491 kts 308°
2026-05-04 13:56 5.83471 23.54628 37787 ft 491 kts 308°
2026-05-04 13:57 5.89652 23.46443 37787 ft 491 kts 308°
2026-05-04 13:58 5.97910 23.35502 37788 ft 491 kts 308°
2026-05-04 13:58 6.04109 23.27286 37787 ft 491 kts 308°
2026-05-04 13:59 6.08236 23.21816 37788 ft 491 kts 308°
2026-05-04 14:00 6.14405 23.13635 37772 ft 491 kts 308°
2026-05-04 14:00 6.20599 23.05414 37788 ft 491 kts 308°
2026-05-04 14:01 6.24715 22.99953 37769 ft 491 kts 308°
2026-05-04 14:02 6.30899 22.91741 37781 ft 491 kts 307°
2026-05-04 14:02 6.35039 22.86247 37769 ft 491 kts 308°
2026-05-04 14:03 6.39164 22.80763 37780 ft 492 kts 308°
2026-05-04 14:03 6.43266 22.75309 37800 ft 491 kts 308°
2026-05-04 14:04 6.49446 22.67090 37794 ft 490 kts 307°
2026-05-04 14:04 6.53553 22.61630 37773 ft 489 kts 308°
2026-05-04 14:05 6.59691 22.53462 37781 ft 489 kts 308°
2026-05-04 14:06 6.63792 22.48002 37776 ft 489 kts 307°
2026-05-04 14:06 6.67872 22.42568 37773 ft 488 kts 307°
2026-05-04 14:07 6.71963 22.37121 37789 ft 487 kts 307°
2026-05-04 14:07 6.76015 22.31722 37792 ft 486 kts 307°
2026-05-04 14:08 6.80088 22.26293 37774 ft 486 kts 307°
2026-05-04 14:08 6.84158 22.20865 37777 ft 485 kts 307°
2026-05-04 14:09 6.90267 22.12715 37777 ft 486 kts 307°
2026-05-04 14:10 6.96344 22.04611 37798 ft 485 kts 307°
2026-05-04 14:10 7.00405 21.99198 37775 ft 484 kts 307°
2026-05-04 14:11 7.04468 21.93778 37785 ft 484 kts 307°
2026-05-04 14:11 7.10519 21.85700 37777 ft 483 kts 307°
2026-05-04 14:12 7.14568 21.80292 37778 ft 482 kts 307°
2026-05-04 14:13 7.20632 21.72190 37776 ft 483 kts 307°
2026-05-04 14:13 7.24668 21.66792 37780 ft 483 kts 307°
2026-05-04 14:14 7.28707 21.61385 37778 ft 482 kts 307°
2026-05-04 14:14 7.34754 21.53284 37800 ft 482 kts 307°
2026-05-04 14:15 7.42780 21.42524 37781 ft 481 kts 307°
2026-05-04 14:16 7.48817 21.34428 37799 ft 481 kts 307°
2026-05-04 14:17 7.54836 21.26350 37803 ft 480 kts 307°
2026-05-04 14:18 7.60831 21.18301 37806 ft 480 kts 307°
2026-05-04 14:19 7.68841 21.07541 37787 ft 479 kts 307°
2026-05-04 14:19 7.72839 21.02167 37784 ft 479 kts 307°
2026-05-04 14:20 7.76844 20.96782 37778 ft 478 kts 307°
2026-05-04 14:20 7.80808 20.91449 37799 ft 478 kts 307°
2026-05-04 14:21 7.86778 20.83416 37794 ft 477 kts 307°
2026-05-04 14:21 7.90758 20.78053 37780 ft 478 kts 307°
2026-05-04 14:22 7.94750 20.72678 37773 ft 478 kts 307°
2026-05-04 14:22 7.98738 20.67302 37791 ft 478 kts 307°
2026-05-04 14:23 8.04804 20.59366 37767 ft 477 kts 308°
2026-05-04 14:24 8.08929 20.54116 37769 ft 477 kts 308°
2026-05-04 14:24 8.13042 20.48859 37782 ft 476 kts 308°
2026-05-04 14:25 8.17133 20.43607 37762 ft 475 kts 308°
2026-05-04 14:25 8.23236 20.35759 37783 ft 476 kts 307°
2026-05-04 14:26 8.27328 20.30493 37766 ft 477 kts 308°
2026-05-04 14:26 8.31433 20.25211 37770 ft 478 kts 308°
2026-05-04 14:27 8.35541 20.19922 37775 ft 479 kts 308°
2026-05-04 14:27 8.39640 20.14642 37794 ft 480 kts 308°
2026-05-04 14:28 8.43768 20.09325 37796 ft 481 kts 308°
2026-05-04 14:28 8.47901 20.03999 37779 ft 481 kts 308°
2026-05-04 14:29 8.56160 19.93346 37776 ft 480 kts 307°
2026-05-04 14:30 8.60267 19.88048 37777 ft 476 kts 307°
2026-05-04 14:31 8.66361 19.80178 37798 ft 475 kts 307°
2026-05-04 14:32 8.74491 19.69677 37780 ft 474 kts 307°
2026-05-04 14:32 8.78564 19.64422 37746 ft 476 kts 308°
2026-05-04 14:33 8.82656 19.59140 37776 ft 477 kts 307°
2026-05-04 14:33 8.86759 19.53839 37749 ft 479 kts 308°
2026-05-04 14:34 8.90842 19.48562 37759 ft 480 kts 308°
2026-05-04 14:34 8.94958 19.43236 37743 ft 480 kts 308°
2026-05-04 14:35 8.99073 19.37915 37747 ft 480 kts 308°
2026-05-04 14:35 9.03181 19.32600 37738 ft 479 kts 308°
2026-05-04 14:36 9.07277 19.27296 37738 ft 478 kts 308°
2026-05-04 14:36 9.11345 19.22026 37738 ft 477 kts 308°
2026-05-04 14:37 9.15425 19.16740 37743 ft 476 kts 308°
2026-05-04 14:37 9.18841 19.12311 37739 ft 476 kts 308°
2026-05-04 14:38 9.22917 19.07024 37741 ft 476 kts 308°
2026-05-04 14:38 9.26964 19.01774 37737 ft 476 kts 308°
2026-05-04 14:39 9.31035 18.96490 37745 ft 475 kts 308°
2026-05-04 14:39 9.35100 18.91211 37738 ft 475 kts 308°
2026-05-04 14:40 9.41194 18.83293 37744 ft 474 kts 308°
2026-05-04 14:40 9.45224 18.78053 37746 ft 474 kts 308°
2026-05-04 14:41 9.49282 18.72776 37736 ft 474 kts 308°
2026-05-04 14:42 9.57373 18.62229 37736 ft 474 kts 308°
2026-05-04 14:42 9.61403 18.56968 37730 ft 473 kts 308°
2026-05-04 14:43 9.65438 18.51699 37738 ft 473 kts 308°
2026-05-04 14:43 9.69486 18.46411 37729 ft 474 kts 308°
2026-05-04 14:44 9.73511 18.41151 37730 ft 473 kts 308°
2026-05-04 14:44 9.77547 18.35875 37723 ft 473 kts 308°
2026-05-04 14:45 9.81589 18.30586 37726 ft 473 kts 308°
2026-05-04 14:45 9.85613 18.25321 37724 ft 473 kts 308°
2026-05-04 14:46 9.89637 18.20053 37726 ft 473 kts 308°
2026-05-04 14:46 9.93650 18.14796 37721 ft 473 kts 308°
2026-05-04 14:47 9.97696 18.09494 37722 ft 473 kts 308°
2026-05-04 14:47 10.01717 18.04222 37721 ft 473 kts 308°
2026-05-04 14:48 10.05735 17.98953 37721 ft 473 kts 308°
2026-05-04 14:48 10.09779 17.93647 37721 ft 473 kts 307°
2026-05-04 14:49 10.13787 17.88385 37716 ft 473 kts 307°
2026-05-04 14:49 10.17833 17.83071 37718 ft 473 kts 307°
2026-05-04 14:50 10.21836 17.77810 37717 ft 473 kts 307°
2026-05-04 14:50 10.25860 17.72521 37722 ft 473 kts 307°
2026-05-04 14:51 10.29875 17.67241 37714 ft 472 kts 307°
2026-05-04 14:51 10.33890 17.61958 37718 ft 472 kts 307°
2026-05-04 14:52 10.37876 17.56710 37717 ft 472 kts 307°
2026-05-04 14:52 10.41892 17.51419 37716 ft 472 kts 307°
2026-05-04 14:53 10.45895 17.46145 37721 ft 472 kts 307°
2026-05-04 14:53 10.49890 17.40878 37720 ft 472 kts 307°
2026-05-04 14:54 10.53910 17.35576 37724 ft 471 kts 307°
2026-05-04 14:54 10.57881 17.30334 37719 ft 471 kts 307°
2026-05-04 14:55 10.61891 17.25041 37723 ft 470 kts 307°
2026-05-04 14:55 10.65878 17.19773 37723 ft 470 kts 307°
2026-05-04 14:56 10.69860 17.14509 37725 ft 470 kts 307°
2026-05-04 14:56 10.73761 17.09172 37727 ft 470 kts 304°
2026-05-04 14:57 10.77455 17.03741 37730 ft 470 kts 304°
2026-05-04 14:57 10.81176 16.98278 37727 ft 469 kts 304°
2026-05-04 14:58 10.84913 16.92849 37724 ft 469 kts 304°
2026-05-04 14:58 10.88670 16.87406 37725 ft 468 kts 304°
2026-05-04 14:59 10.92396 16.82002 37725 ft 468 kts 304°
2026-05-04 15:00 10.98011 16.73855 37728 ft 468 kts 304°
2026-05-04 15:00 11.01721 16.68470 37737 ft 467 kts 304°
2026-05-04 15:01 11.07311 16.60352 37738 ft 466 kts 304°
2026-05-04 15:01 11.11032 16.54942 37739 ft 465 kts 304°
2026-05-04 15:02 11.14746 16.49540 37746 ft 465 kts 304°
2026-05-04 15:02 11.18426 16.44184 37751 ft 465 kts 304°
2026-05-04 15:03 11.22134 16.38787 37754 ft 465 kts 304°
2026-05-04 15:03 11.25851 16.33371 37751 ft 466 kts 304°
2026-05-04 15:04 11.29571 16.27948 37762 ft 467 kts 304°
2026-05-04 15:04 11.33299 16.22513 37759 ft 468 kts 304°
2026-05-04 15:05 11.37029 16.17070 37761 ft 468 kts 304°
2026-05-04 15:05 11.40742 16.11650 37761 ft 469 kts 304°
2026-05-04 15:06 11.44479 16.06191 37772 ft 469 kts 304°
2026-05-04 15:07 11.50078 15.98009 37777 ft 468 kts 304°
2026-05-04 15:07 11.53801 15.92563 37771 ft 467 kts 304°
2026-05-04 15:08 11.57515 15.87129 37771 ft 466 kts 304°
2026-05-04 15:08 11.61198 15.81737 37782 ft 465 kts 304°
2026-05-04 15:09 11.64898 15.76317 37777 ft 465 kts 304°
2026-05-04 15:09 11.68595 15.70897 37782 ft 466 kts 304°
2026-05-04 15:10 11.74155 15.62742 37779 ft 466 kts 304°
2026-05-04 15:11 11.79694 15.54612 37784 ft 467 kts 304°
2026-05-04 15:11 11.83405 15.49160 37791 ft 468 kts 304°
2026-05-04 15:12 11.87124 15.43694 37790 ft 468 kts 304°
2026-05-04 15:12 11.90850 15.38214 37791 ft 469 kts 304°
2026-05-04 15:13 11.94546 15.32776 37800 ft 469 kts 304°
2026-05-04 15:13 11.98260 15.27307 37802 ft 468 kts 304°
2026-05-04 15:14 12.01979 15.21828 37797 ft 470 kts 304°
2026-05-04 15:14 12.05704 15.16337 37804 ft 471 kts 304°
2026-05-04 15:15 12.09439 15.10828 37803 ft 472 kts 304°
2026-05-04 15:15 12.13520 15.05599 37794 ft 473 kts 318°
2026-05-04 15:16 12.19116 15.02151 37807 ft 477 kts 339°
2026-05-04 15:16 12.22284 15.01146 37830 ft 476 kts 342°
2026-05-04 15:17 12.31901 14.98348 37802 ft 480 kts 342°
2026-05-04 15:17 12.41524 14.95461 37793 ft 480 kts 340°
2026-05-04 15:18 12.47865 14.93520 37788 ft 477 kts 340°
2026-05-04 15:19 12.57396 14.90598 37779 ft 473 kts 340°
2026-05-04 15:19 12.66844 14.87703 37779 ft 471 kts 340°
2026-05-04 15:20 12.73091 14.85787 37774 ft 472 kts 340°
2026-05-04 15:20 12.79406 14.83850 37780 ft 473 kts 340°
2026-05-04 15:21 12.85742 14.81905 37777 ft 475 kts 340°
2026-05-04 15:22 12.95227 14.78992 37776 ft 477 kts 340°
2026-05-04 15:22 13.04791 14.76054 37776 ft 478 kts 340°
2026-05-04 15:23 13.11175 14.74091 37777 ft 478 kts 340°
2026-05-04 15:23 13.17538 14.72134 37775 ft 477 kts 340°
2026-05-04 15:24 13.30224 14.68228 37767 ft 474 kts 340°
2026-05-04 15:25 13.36543 14.66280 37768 ft 474 kts 340°
2026-05-04 15:26 13.45998 14.63364 37782 ft 474 kts 339°
2026-05-04 15:26 13.55496 14.60432 37766 ft 475 kts 339°
2026-05-04 15:27 13.64951 14.57511 37769 ft 475 kts 339°
2026-05-04 15:28 13.73423 14.54892 37770 ft 475 kts 339°
2026-05-04 15:29 13.82899 14.51961 37773 ft 475 kts 339°
2026-05-04 15:30 14.05070 14.45091 37764 ft 474 kts 339°
2026-05-04 15:31 14.14525 14.42157 37753 ft 474 kts 339°
2026-05-04 15:32 14.30349 14.37241 37754 ft 475 kts 339°
2026-05-04 15:34 14.46132 14.32330 37758 ft 475 kts 339°
2026-05-04 15:34 14.55622 14.29372 37753 ft 475 kts 339°
2026-05-04 15:35 14.65075 14.26422 37755 ft 474 kts 339°
2026-05-04 15:36 14.74541 14.23466 37755 ft 473 kts 339°
2026-05-04 15:36 14.80818 14.21504 37759 ft 473 kts 339°
2026-05-04 15:37 14.87129 14.19530 37759 ft 474 kts 339°
2026-05-04 15:37 14.93441 14.17554 37762 ft 474 kts 339°
2026-05-04 15:38 14.99764 14.15575 37760 ft 475 kts 339°
2026-05-04 15:38 15.06104 14.13588 37759 ft 475 kts 339°
2026-05-04 15:39 15.12438 14.11602 37759 ft 475 kts 339°
2026-05-04 15:40 15.21897 14.08635 37752 ft 475 kts 339°
2026-05-04 15:40 15.28231 14.06646 37770 ft 475 kts 339°
2026-05-04 15:41 15.34559 14.04657 37777 ft 475 kts 339°
2026-05-04 15:41 15.40882 14.02669 37785 ft 474 kts 339°
2026-05-04 15:42 15.47198 14.00682 37765 ft 474 kts 339°
2026-05-04 15:42 15.53482 13.98704 37777 ft 474 kts 339°
2026-05-04 15:43 15.59803 13.96714 37786 ft 474 kts 338°
2026-05-04 15:43 15.66118 13.94722 37760 ft 474 kts 338°
2026-05-04 15:44 15.72444 13.92727 37769 ft 474 kts 338°
2026-05-04 15:44 15.78751 13.90736 37779 ft 474 kts 338°
2026-05-04 15:45 15.85024 13.88754 37770 ft 474 kts 338°
2026-05-04 15:45 15.91351 13.86756 37785 ft 474 kts 338°
2026-05-04 15:46 15.97674 13.84756 37771 ft 474 kts 337°
2026-05-04 15:46 16.03982 13.82760 37773 ft 474 kts 337°
2026-05-04 15:47 16.10259 13.80772 37773 ft 473 kts 337°
2026-05-04 15:47 16.16565 13.78774 37780 ft 473 kts 337°
2026-05-04 15:48 16.22869 13.76775 37779 ft 473 kts 337°
2026-05-04 15:48 16.32314 13.73778 37780 ft 472 kts 337°
2026-05-04 15:49 16.38600 13.71782 37779 ft 471 kts 337°
2026-05-04 15:49 16.44838 13.69799 37781 ft 471 kts 337°
2026-05-04 15:50 16.51113 13.67802 37781 ft 471 kts 337°
2026-05-04 15:50 16.57382 13.65807 37784 ft 471 kts 337°
2026-05-04 15:51 16.63659 13.63805 37789 ft 471 kts 337°
2026-05-04 15:51 16.69898 13.61810 37783 ft 472 kts 337°
2026-05-04 15:52 16.76179 13.59800 37791 ft 472 kts 337°
2026-05-04 15:52 16.82463 13.57789 37789 ft 472 kts 337°
2026-05-04 15:53 16.88743 13.55778 37788 ft 472 kts 337°
2026-05-04 15:53 16.94991 13.53775 37810 ft 472 kts 336°
2026-05-04 15:54 17.01270 13.51762 37792 ft 470 kts 336°
2026-05-04 15:54 17.07518 13.49757 37785 ft 468 kts 336°
2026-05-04 15:55 17.13752 13.47754 37789 ft 467 kts 336°
2026-05-04 15:55 17.19931 13.45768 37797 ft 467 kts 336°
2026-05-04 15:56 17.26157 13.43764 37796 ft 468 kts 336°
2026-05-04 15:56 17.32399 13.41754 37806 ft 469 kts 336°
2026-05-04 15:57 17.38654 13.39740 37804 ft 471 kts 336°
2026-05-04 15:57 17.44925 13.37719 37800 ft 471 kts 337°
2026-05-04 15:58 17.51165 13.35706 37799 ft 472 kts 337°
2026-05-04 15:58 17.57439 13.33687 37797 ft 472 kts 337°
2026-05-04 15:59 17.63719 13.31670 37798 ft 472 kts 337°
2026-05-04 15:59 17.69997 13.29652 37796 ft 471 kts 337°
2026-05-04 16:00 17.76278 13.27630 37802 ft 471 kts 337°
2026-05-04 16:00 17.82499 13.25626 37804 ft 471 kts 337°
2026-05-04 16:01 17.88761 13.23606 37801 ft 471 kts 337°
2026-05-04 16:01 17.95026 13.21584 37800 ft 471 kts 337°
2026-05-04 16:02 18.01289 13.19562 37807 ft 471 kts 336°
2026-05-04 16:03 18.10679 13.16527 37799 ft 470 kts 336°
2026-05-04 16:03 18.16931 13.14504 37799 ft 470 kts 336°
2026-05-04 16:04 18.23141 13.12494 37800 ft 469 kts 336°
2026-05-04 16:04 18.32493 13.09462 37809 ft 469 kts 335°
2026-05-04 16:05 18.38724 13.07441 37803 ft 468 kts 335°
2026-05-04 16:06 18.48068 13.04408 37805 ft 467 kts 335°
2026-05-04 16:07 18.60441 13.00384 37797 ft 466 kts 335°
2026-05-04 16:08 18.72862 12.96338 37802 ft 467 kts 336°
2026-05-04 16:09 18.88344 12.91288 37803 ft 467 kts 336°
2026-05-04 16:10 19.00491 12.86645 37802 ft 456 kts 324°
2026-05-04 16:11 19.11249 12.79770 37827 ft 452 kts 322°
2026-05-04 16:12 19.27428 12.69461 37802 ft 454 kts 322°
2026-05-04 16:13 19.38257 12.62563 37810 ft 452 kts 322°
2026-05-04 16:14 19.48978 12.55719 37785 ft 449 kts 322°
2026-05-04 16:16 19.62363 12.47158 37789 ft 449 kts 321°
2026-05-04 16:17 19.75706 12.38607 37800 ft 450 kts 321°
2026-05-04 16:18 19.85548 12.32290 37800 ft 451 kts 321°
2026-05-04 16:19 19.98980 12.23654 37807 ft 451 kts 321°
2026-05-04 16:20 20.12361 12.15032 37805 ft 450 kts 321°
2026-05-04 16:22 20.25753 12.06386 37808 ft 449 kts 321°
2026-05-04 16:23 20.41758 11.96029 37821 ft 450 kts 321°
2026-05-04 16:25 20.57782 11.85635 37804 ft 448 kts 321°
2026-05-04 16:26 20.76407 11.73542 37812 ft 448 kts 322°
2026-05-04 16:28 20.89724 11.64873 37808 ft 448 kts 322°
2026-05-04 16:29 21.08349 11.52716 37810 ft 449 kts 322°
2026-05-04 16:30 21.16370 11.47470 38484 ft 449 kts 322°
2026-05-04 16:31 21.21698 11.43980 38899 ft 448 kts 322°
2026-05-04 16:31 21.29641 11.38765 39437 ft 447 kts 322°
2026-05-04 16:32 21.37618 11.33522 39758 ft 449 kts 322°
2026-05-04 16:33 21.48215 11.26550 39800 ft 445 kts 322°
2026-05-04 16:34 21.56102 11.21352 39802 ft 442 kts 322°
2026-05-04 16:35 21.71816 11.10970 39810 ft 443 kts 322°
2026-05-04 16:36 21.79678 11.05767 39819 ft 444 kts 322°
2026-05-04 16:37 21.87569 11.00539 39815 ft 444 kts 322°
2026-05-04 16:38 21.98083 10.93562 39812 ft 444 kts 322°
2026-05-04 16:39 22.11211 10.84833 39830 ft 444 kts 322°
2026-05-04 16:40 22.21722 10.77830 39813 ft 443 kts 322°
2026-05-04 16:41 22.34798 10.69101 39818 ft 441 kts 322°
2026-05-04 16:43 22.47811 10.60393 39833 ft 441 kts 322°
2026-05-04 16:43 22.55638 10.55145 39828 ft 441 kts 322°
2026-05-04 16:45 22.71460 10.44850 39833 ft 443 kts 324°
2026-05-04 16:46 22.84831 10.36557 39836 ft 444 kts 324°
2026-05-04 16:47 22.95531 10.29854 39841 ft 443 kts 324°
2026-05-04 16:48 23.06199 10.23158 39844 ft 443 kts 324°
2026-05-04 16:49 23.16862 10.16454 39843 ft 443 kts 324°
2026-05-04 16:50 23.27538 10.09729 39845 ft 443 kts 324°
2026-05-04 16:51 23.35509 10.04700 39846 ft 443 kts 324°
2026-05-04 16:52 23.46197 9.97946 39862 ft 443 kts 324°
2026-05-04 16:53 23.54174 9.92896 39852 ft 443 kts 324°
2026-05-04 16:54 23.64835 9.86137 39858 ft 443 kts 324°
2026-05-04 16:55 23.80790 9.75995 39852 ft 443 kts 324°
2026-05-04 16:56 23.94094 9.67518 39872 ft 443 kts 324°
2026-05-04 16:57 24.02061 9.62431 39886 ft 443 kts 324°
2026-05-04 16:58 24.12716 9.55615 39973 ft 443 kts 324°
2026-05-04 17:00 24.28891 9.45820 40028 ft 449 kts 333°
2026-05-04 17:01 24.44295 9.41818 39999 ft 458 kts 342°
2026-05-04 17:02 24.56791 9.39098 39937 ft 458 kts 342°
2026-05-04 17:03 24.66156 9.37016 39894 ft 458 kts 342°
2026-05-04 17:03 24.75536 9.34926 39921 ft 458 kts 342°
2026-05-04 17:04 24.86989 9.32371 39914 ft 458 kts 342°
2026-05-04 17:05 25.00483 9.29356 39914 ft 457 kts 342°
2026-05-04 17:06 25.08812 9.27491 39918 ft 457 kts 342°
2026-05-04 17:07 25.17109 9.25632 39902 ft 455 kts 342°
2026-05-04 17:07 25.24337 9.24010 39889 ft 454 kts 342°
2026-05-04 17:08 25.33605 9.21924 39895 ft 454 kts 342°
2026-05-04 17:09 25.39807 9.20528 39879 ft 455 kts 342°
2026-05-04 17:09 25.46025 9.19127 39875 ft 454 kts 342°
2026-05-04 17:10 25.61490 9.15636 39827 ft 454 kts 342°
2026-05-04 17:11 25.67660 9.14240 39851 ft 453 kts 342°
2026-05-04 17:12 25.76941 9.12138 39814 ft 452 kts 342°
2026-05-04 17:13 25.92324 9.08647 39822 ft 451 kts 341°
2026-05-04 17:14 26.04630 9.05853 39828 ft 451 kts 342°
2026-05-04 17:15 26.13814 9.03785 39827 ft 449 kts 341°
2026-05-04 17:16 26.26022 9.01024 39829 ft 448 kts 341°
2026-05-04 17:17 26.38260 8.98250 39828 ft 449 kts 341°
2026-05-04 17:18 26.50499 8.95471 39822 ft 448 kts 341°
2026-05-04 17:19 26.62708 8.92691 39833 ft 449 kts 341°
2026-05-04 17:20 26.74954 8.89897 39848 ft 448 kts 341°
2026-05-04 17:20 26.84072 8.87813 39850 ft 447 kts 341°
2026-05-04 17:21 26.96248 8.85024 39850 ft 447 kts 341°
2026-05-04 17:22 27.02364 8.83625 39831 ft 446 kts 341°
2026-05-04 17:23 27.14481 8.80877 39843 ft 445 kts 341°
2026-05-04 17:24 27.23580 8.78807 39850 ft 445 kts 341°
2026-05-04 17:25 27.35687 8.76046 39850 ft 445 kts 341°
2026-05-04 17:26 27.47822 8.73272 39861 ft 444 kts 341°
2026-05-04 17:27 27.62966 8.69802 39866 ft 445 kts 341°
2026-05-04 17:28 27.75120 8.67010 39867 ft 446 kts 341°
2026-05-04 17:29 27.93355 8.62809 39866 ft 447 kts 341°
2026-05-04 17:31 28.08597 8.59287 39880 ft 447 kts 341°
2026-05-04 17:32 28.23850 8.55788 39880 ft 449 kts 341°
2026-05-04 17:33 28.36114 8.52971 39886 ft 450 kts 341°
2026-05-04 17:34 28.48380 8.50146 39890 ft 451 kts 341°
2026-05-04 17:35 28.63786 8.46589 39890 ft 451 kts 341°
2026-05-04 17:36 28.69945 8.45163 39909 ft 452 kts 341°
2026-05-04 17:36 28.76077 8.43742 39895 ft 452 kts 341°
2026-05-04 17:37 28.82256 8.42309 39892 ft 452 kts 341°
2026-05-04 17:37 28.88433 8.40874 39894 ft 452 kts 341°
2026-05-04 17:38 28.94598 8.39440 39896 ft 452 kts 341°
2026-05-04 17:38 29.00742 8.38009 39908 ft 453 kts 341°
2026-05-04 17:39 29.10016 8.35847 39899 ft 453 kts 341°
2026-05-04 17:39 29.16204 8.34401 39894 ft 454 kts 341°
2026-05-04 17:40 29.22358 8.32963 39894 ft 453 kts 341°
2026-05-04 17:40 29.28542 8.31515 39929 ft 454 kts 341°
2026-05-04 17:41 29.34743 8.30060 39904 ft 454 kts 341°
2026-05-04 17:41 29.40943 8.28606 39904 ft 454 kts 341°
2026-05-04 17:42 29.47119 8.27154 39904 ft 454 kts 341°
2026-05-04 17:42 29.53313 8.25697 39900 ft 454 kts 341°
2026-05-04 17:43 29.59499 8.24240 39924 ft 454 kts 341°
2026-05-04 17:43 29.65709 8.22774 39912 ft 455 kts 341°
2026-05-04 17:44 29.71880 8.21317 39917 ft 456 kts 341°
2026-05-04 17:44 29.78094 8.19848 39911 ft 455 kts 341°
2026-05-04 17:45 29.84303 8.18378 39922 ft 455 kts 341°
2026-05-04 17:45 29.90512 8.16903 39923 ft 456 kts 341°
2026-05-04 17:46 29.96734 8.15428 39926 ft 456 kts 341°
2026-05-04 17:46 30.02955 8.13949 39931 ft 456 kts 341°
2026-05-04 17:47 30.09145 8.12481 39926 ft 457 kts 341°
2026-05-04 17:47 30.15376 8.11026 39956 ft 457 kts 341°
2026-05-04 17:48 30.21612 8.09569 39941 ft 458 kts 341°
2026-05-04 17:48 30.27853 8.08106 39941 ft 457 kts 341°
2026-05-04 17:49 30.34098 8.06640 39932 ft 458 kts 341°
2026-05-04 17:49 30.40342 8.05171 39937 ft 458 kts 341°
2026-05-04 17:50 30.46593 8.03700 39945 ft 458 kts 341°
2026-05-04 17:50 30.52842 8.02226 39940 ft 458 kts 341°
2026-05-04 17:51 30.59097 8.00750 39941 ft 458 kts 341°
2026-05-04 17:51 30.65310 7.99280 39935 ft 458 kts 341°
2026-05-04 17:52 30.71563 7.97798 39957 ft 458 kts 341°
2026-05-04 17:52 30.77820 7.96315 39942 ft 459 kts 341°
2026-05-04 17:53 30.84079 7.94829 39943 ft 459 kts 341°
2026-05-04 17:53 30.89286 7.93592 39945 ft 459 kts 341°
2026-05-04 17:54 30.95554 7.92101 39946 ft 459 kts 341°
2026-05-04 17:54 31.01816 7.90609 39969 ft 460 kts 341°
2026-05-04 17:55 31.08094 7.89111 39952 ft 460 kts 341°
2026-05-04 17:55 31.14369 7.87611 39945 ft 460 kts 341°
2026-05-04 17:56 31.20643 7.86110 39951 ft 460 kts 341°
2026-05-04 17:56 31.26883 7.84616 39947 ft 460 kts 341°
2026-05-04 17:57 31.33153 7.83112 39966 ft 460 kts 341°
2026-05-04 17:57 31.39434 7.81602 39949 ft 460 kts 341°
2026-05-04 17:58 31.45696 7.80096 39946 ft 460 kts 341°
2026-05-04 17:58 31.51977 7.78583 39953 ft 460 kts 341°
2026-05-04 17:59 31.58234 7.77074 39972 ft 460 kts 341°
2026-05-04 18:00 31.67658 7.74796 39961 ft 461 kts 341°
2026-05-04 18:00 31.73938 7.73276 39962 ft 460 kts 341°
2026-05-04 18:01 31.80186 7.71776 39963 ft 460 kts 341°
2026-05-04 18:01 31.86470 7.70293 39977 ft 461 kts 342°
2026-05-04 18:02 31.95898 7.68067 39963 ft 461 kts 342°
2026-05-04 18:02 32.02180 7.66577 39963 ft 461 kts 342°
2026-05-04 18:03 32.08501 7.65073 39967 ft 461 kts 342°
2026-05-04 18:03 32.14788 7.63576 39975 ft 462 kts 342°
2026-05-04 18:04 32.21074 7.62077 39973 ft 462 kts 342°
2026-05-04 18:05 32.30528 7.59820 39971 ft 462 kts 342°
2026-05-04 18:05 32.36828 7.58312 39966 ft 462 kts 342°
2026-05-04 18:06 32.46251 7.56053 39972 ft 462 kts 342°
2026-05-04 18:06 32.52560 7.54538 39970 ft 462 kts 342°
2026-05-04 18:07 32.58883 7.53018 39977 ft 462 kts 342°
2026-05-04 18:07 32.65186 7.51499 39976 ft 462 kts 342°
2026-05-04 18:08 32.71446 7.49989 39976 ft 462 kts 342°
2026-05-04 18:08 32.77784 7.48459 39978 ft 462 kts 342°
2026-05-04 18:09 32.90359 7.45416 39982 ft 462 kts 342°
2026-05-04 18:10 32.96675 7.43883 39993 ft 462 kts 342°
2026-05-04 18:10 33.02965 7.42355 39986 ft 462 kts 342°
2026-05-04 18:11 33.09259 7.40824 39981 ft 462 kts 342°
2026-05-04 18:11 33.15541 7.39294 39989 ft 462 kts 342°
2026-05-04 18:12 33.21883 7.37746 39986 ft 462 kts 342°
2026-05-04 18:12 33.28144 7.36217 39990 ft 462 kts 342°
2026-05-04 18:13 33.34471 7.34668 39987 ft 462 kts 342°